Wind_Speed
8 10 9 9 10 10 10 11 13 13 15 14 14 18 18 19 19 19 21 21 20 21 22 22 21 20 20 21 21 22 22 22 23 22 22 23 23 24 24 24 25 26 27 27
8 7 8 9 11 13 13 13 14 14 17 16 16 19 18 21 21 21 21 21 20 21 22 22 21 21 21 21 22 22 23 24 24 24 24 24 25 25 25 26 26 27 27 27
6 4 7 11 13 13 13 13 14 16 17 16 17 19 19 20 21 21 21 21 20 21 21 21 22 22 22 23 23 24 24 25 25 25 25 26 27 27 27 27 27 27 26 27
6 9 11 12 11 11 11 12 15 16 17 17 17 19 19 21 21 19 20 20 21 21 22 22 22 22 22 22 23 24 25 25 26 25 26 27 28 28 28 28 29 29 29 29
7 10 11 11 10 12 12 14 16 16 17 18 19 19 21 22 22 19 19 20 21 22 23 23 23 23 22 23 24 24 24 25 25 25 26 27 28 30 30 30 30 29 30 31
9 11 10 11 13 14 14 15 16 16 17 20 19 21 21 21 20 20 19 19 20 23 21 22 23 23 23 23 24 24 25 24 25 26 26 28 29 30 30 30 29 30 30 31
8 9 10 11 11 12 12 12 13 15 17 19 18 20 21 20 19 20 21 20 20 21 20 21 23 23 24 25 25 25 25 25 26 27 27 28 29 29 29 29 29 29 29 29
9 11 10 10 10 11 12 13 15 16 18 18 17 19 19 18 20 22 22 23 22 20 21 22 23 23 24 24 24 25 26 26 26 27 28 29 29 28 27 26 26 27 27 27
9 10 10 11 11 11 10 12 14 16 17 17 16 16 17 18 21 22 23 23 21 20 21 21 23 23 24 24 25 25 25 26 26 26 27 27 27 27 26 25 25 24 25 26
8 9 9 10 11 11 12 13 14 15 15 16 13 15 16 18 19 20 21 22 22 21 21 21 22 23 23 23 24 25 25 25 25 25 26 26 26 26 25 24 24 24 25 25
11 11 10 10 10 11 12 13 13 14 15 15 17 19 20 19 19 20 20 21 21 22 22 22 23 24 24 24 24 25 24 25 25 25 25 25 25 24 24 24 23 24 24 24
12 12 11 10 11 12 13 14 15 17 17 18 19 21 21 21 22 22 22 23 22 23 23 23 23 24 24 24 23 24 24 23 23 23 24 24 23 24 24 23 23 23 23 22
11 11 11 10 12 12 12 12 13 16 17 17 19 21 23 22 22 23 23 23 23 24 24 24 24 23 23 23 23 23 23 22 23 23 23 24 23 23 23 23 22 21 21 21
11 11 12 11 11 10 10 11 13 15 16 18 19 21 22 22 22 22 22 22 22 23 23 23 22 22 22 22 22 22 21 21 21 22 23 23 22 21 21 21 20 20 20 20
11 11 11 10 9 10 10 12 13 15 16 17 18 19 20 21 22 22 22 22 22 22 22 21 21 21 21 21 20 20 20 19 19 20 20 20 20 20 19 19 18 19 19 19
10 9 9 8 8 9 11 13 14 15 16 17 18 19 18 19 20 20 21 21 22 21 20 20 20 20 20 19 19 19 19 18 19 18 18 18 18 18 17 17 17 17 17 17
9 8 8 8 9 9 11 12 13 14 16 17 18 18 18 19 19 19 20 20 20 19 19 19 18 18 18 18 18 17 16 16 16 16 15 16 16 15 15 15 15 15 15 15
9 8 8 9 9 11 10 11 13 14 15 16 17 17 17 18 18 18 18 19 18 18 18 17 16 16 16 16 15 15 14 14 13 13 13 14 14 13 12 12 12 12 12 12
8 8 8 8 9 11 11 12 14 15 15 15 16 17 17 18 18 18 18 18 18 18 17 15 15 14 13 13 13 13 11 11 11 11 12 11 11 11 10 11 11 11 10 10
7 8 7 7 9 10 11 12 13 14 15 15 15 16 17 17 17 18 18 18 17 17 15 14 13 12 12 12 11 10 9 9 9 9 9 9 9 8 9 10 10 10 9 8
7 8 8 8 9 10 11 12 12 13 14 15 15 15 15 16 16 16 16 16 15 14 13 12 12 11 10 9 9 8 8 8 8 7 7 6 6 7 8 8 9 9 9 8
8 8 8 9 10 10 11 11 11 12 13 13 13 14 14 14 14 15 15 14 13 12 11 10 10 9 9 8 8 7 7 6 6 6 5 6 7 7 8 8 8 8 9 9
9 8 8 8 9 10 9 10 10 11 11 12 13 13 13 13 14 14 13 12 11 9 9 8 8 7 7 6 6 6 5 4 4 4 4 5 7 7 7 7 7 7 8 8
7 7 8 8 9 9 9 9 10 10 11 11 11 12 12 13 13 13 11 10 9 9 8 6 6 5 5 5 5 4 3 3 3 3 5 5 6 6 7 7 7 7 7 8
8 9 8 8 9 9 9 8 9 9 10 10 10 11 12 12 13 12 10 9 9 8 7 6 5 5 5 4 4 3 3 3 4 4 5 5 6 7 7 7 7 7 8 8
8 8 9 9 9 9 8 8 8 8 8 9 10 10 11 11 11 10 10 9 8 7 7 7 6 5 5 5 4 4 3 4 4 4 5 5 6 6 6 7 7 8 8 8
Wind_Direction
187 189 184 187 189 192 216 232 231 236 252 255 256 260 260 268 276 276 280 277 276 277 277 277 278 281 284 286 287 287 288 288 288 288 287 286 285 284 285 283 281 280 278 276
178 189 181 196 208 207 212 225 227 236 250 257 260 263 270 276 279 280 279 279 276 274 276 279 281 283 284 285 287 287 288 288 287 286 287 288 288 286 285 284 283 282 279 276
161 189 203 208 215 215 210 217 227 237 252 260 256 263 272 276 275 277 277 274 273 274 274 276 279 282 283 284 285 287 288 286 286 287 288 288 288 287 286 285 284 282 280 278
185 215 220 218 218 218 215 224 230 238 249 259 263 262 270 272 274 276 278 275 276 276 278 279 279 281 283 285 286 288 287 286 286 288 288 287 288 288 286 286 285 283 282 281
208 231 232 227 218 226 217 222 233 241 246 253 260 266 266 270 275 276 280 280 281 279 280 279 279 280 282 285 287 290 288 287 288 290 289 288 289 289 288 288 286 285 284 284
208 231 229 219 221 225 223 231 241 244 247 255 258 263 269 276 277 276 278 279 282 285 280 279 281 282 283 285 286 288 290 288 289 290 290 290 292 290 289 289 286 285 285 285
217 237 242 233 229 236 234 238 247 250 250 253 255 257 264 273 277 280 285 288 289 285 284 283 283 283 284 285 286 288 290 290 289 289 290 293 295 293 292 290 288 287 285 285
228 234 245 252 241 237 240 240 249 260 262 261 250 250 257 269 278 286 291 292 292 290 290 289 289 288 286 287 287 287 289 290 290 291 292 294 295 295 294 292 291 289 287 288
228 238 245 251 251 246 247 247 253 261 271 276 274 267 265 273 281 287 292 294 292 291 291 290 289 289 288 287 288 289 290 291 291 292 294 295 297 297 295 293 292 290 290 290
233 234 245 252 249 247 247 252 254 254 270 283 279 275 275 277 278 282 291 295 296 295 293 292 291 291 290 290 290 292 292 292 293 294 295 296 298 297 296 296 293 291 291 291
247 243 237 245 249 250 251 258 260 259 259 271 282 281 282 288 288 291 295 296 296 295 294 294 293 292 292 292 292 292 291 292 294 295 296 297 297 297 296 298 296 294 294 293
241 241 234 240 249 252 253 257 260 261 260 260 270 278 284 289 290 294 295 295 296 295 295 295 293 293 293 292 293 293 291 292 294 296 297 300 297 297 298 297 296 296 296 296
243 243 240 241 247 253 255 258 264 265 266 266 269 278 283 290 291 293 295 295 295 294 295 295 296 293 292 292 293 293 292 292 294 297 298 299 299 299 299 298 296 296 297 298
245 244 245 248 250 256 262 267 269 268 269 271 275 280 285 290 292 293 294 295 297 296 296 296 297 295 293 292 292 292 292 291 294 297 298 300 301 302 301 300 299 299 299 299
249 251 254 256 258 259 262 268 273 274 272 275 280 284 289 292 295 295 295 296 297 297 298 297 297 295 294 294 294 293 293 294 298 300 300 302 303 304 305 304 304 304 303 303
254 256 261 266 269 270 271 271 271 275 276 280 285 288 294 296 298 298 297 297 298 298 298 300 300 297 296 294 293 295 297 299 302 304 305 305 306 307 307 305 304 306 309 308
258 260 264 271 273 271 276 281 279 281 282 284 287 292 294 295 298 301 302 301 300 301 302 302 301 299 296 295 294 296 301 304 306 307 307 307 308 309 309 308 309 311 314 315
260 262 266 269 273 281 287 289 291 291 291 291 294 296 295 296 300 302 303 305 303 303 304 306 305 301 297 297 299 299 303 307 310 311 311 312 312 313 313 314 317 322 324 325
264 263 264 265 270 282 293 295 293 292 294 296 298 300 301 301 301 301 302 304 304 305 306 306 307 306 304 303 301 302 304 308 313 315 316 318 319 320 321 323 328 330 330 331
272 269 274 275 275 280 291 296 298 300 300 302 304 306 307 306 305 306 305 305 304 304 306 307 308 308 308 309 304 306 309 310 313 318 322 324 324 326 330 334 336 338 339 337
277 277 276 276 279 289 295 300 305 305 306 308 312 314 315 314 312 314 312 309 309 309 306 305 308 311 310 310 310 311 312 310 316 324 330 332 337 339 341 346 350 353 355 354
279 277 273 273 277 287 296 303 309 311 310 313 317 321 322 322 320 320 319 318 319 316 314 311 313 315 311 310 308 305 309 315 322 326 333 338 347 353 356 1 3 6 10 16
272 273 276 277 279 289 300 307 313 318 320 322 324 325 326 328 328 328 327 325 326 328 324 320 321 324 322 321 321 316 314 323 335 345 351 352 355 3 10 13 16 17 19 23
268 272 276 280 286 292 299 305 312 318 323 327 330 334 338 339 339 340 339 337 337 340 342 345 342 344 341 338 338 343 349 347 349 1 7 9 14 19 24 28 28 28 29 32
267 270 277 281 286 290 296 303 314 318 325 332 336 339 342 343 346 350 355 356 356 359 5 10 10 8 2 0 2 6 18 19 22 22 26 31 31 33 33 36 41 45 45 43
275 278 279 280 284 288 294 304 315 321 329 336 341 344 348 351 354 358 2 4 10 15 19 20 22 25 29 36 46 47 43 37 37 41 41 37 35 38 37 39 46 50 51 54
Height
5841 5845 5847 5850 5852 5856 5859 5861 5862 5861 5861 5862 5861 5860 5859 5860 5859 5858 5859 5859 5859 5859 5858 5857 5856 5856 5855 5855 5854 5853 5852 5851 5849 5848 5847 5846 5845 5845 5844 5843 5842 5841 5840 5840
5843 5845 5847 5850 5853 5854 5857 5859 5861 5861 5860 5860 5859 5857 5856 5856 5856 5855 5855 5855 5855 5855 5853 5852 5851 5852 5852 5851 5850 5849 5848 5847 5845 5844 5843 5841 5841 5840 5839 5838 5836 5835 5834 5833
5843 5846 5847 5849 5851 5852 5855 5857 5858 5859 5858 5857 5858 5855 5854 5853 5852 5852 5851 5851 5851 5851 5849 5848 5848 5848 5848 5847 5846 5844 5843 5842 5840 5839 5838 5837 5835 5834 5833 5832 5830 5829 5828 5827
5843 5845 5846 5848 5849 5851 5853 5855 5856 5857 5856 5855 5855 5853 5852 5849 5847 5847 5846 5846 5846 5846 5845 5844 5844 5844 5843 5842 5841 5839 5838 5836 5835 5834 5833 5831 5830 5829 5827 5826 5824 5823 5821 5820
5844 5844 5845 5846 5848 5849 5851 5852 5853 5854 5854 5853 5851 5850 5849 5845 5843 5843 5843 5842 5841 5842 5841 5840 5839 5839 5838 5838 5836 5834 5833 5831 5830 5829 5827 5826 5824 5822 5820 5819 5817 5816 5814 5813
5842 5843 5844 5844 5845 5846 5847 5849 5849 5850 5850 5850 5848 5847 5844 5842 5841 5839 5838 5838 5837 5837 5836 5835 5835 5834 5833 5832 5831 5829 5828 5826 5825 5823 5822 5820 5817 5815 5813 5812 5810 5808 5807 5805
5840 5841 5841 5842 5843 5844 5845 5847 5847 5847 5846 5845 5845 5843 5840 5839 5838 5837 5835 5835 5833 5832 5832 5831 5830 5829 5828 5827 5826 5824 5823 5821 5820 5818 5816 5813 5811 5809 5806 5804 5802 5801 5799 5797
5838 5839 5840 5840 5841 5842 5842 5844 5845 5843 5841 5840 5839 5837 5836 5835 5834 5833 5833 5832 5830 5829 5828 5827 5825 5824 5823 5822 5820 5819 5818 5816 5814 5812 5810 5807 5805 5802 5800 5797 5795 5794 5792 5790
5835 5837 5837 5838 5839 5840 5839 5840 5840 5840 5838 5836 5835 5833 5832 5832 5831 5830 5829 5827 5826 5825 5825 5823 5822 5820 5819 5817 5815 5813 5812 5810 5808 5806 5803 5801 5798 5796 5793 5791 5789 5787 5785 5783
5833 5835 5836 5836 5836 5837 5838 5837 5837 5836 5836 5834 5832 5829 5828 5827 5827 5826 5826 5824 5823 5822 5820 5819 5817 5816 5814 5812 5810 5808 5806 5804 5802 5800 5798 5795 5793 5790 5788 5785 5783 5781 5779 5777
5832 5833 5834 5834 5834 5835 5835 5835 5834 5833 5833 5832 5830 5829 5825 5823 5823 5822 5822 5821 5819 5817 5816 5815 5813 5811 5808 5806 5804 5802 5801 5799 5797 5794 5792 5789 5787 5784 5782 5780 5778 5775 5773 5771
5830 5830 5831 5831 5832 5831 5831 5832 5831 5831 5830 5829 5827 5827 5822 5821 5820 5819 5818 5817 5815 5813 5812 5810 5808 5805 5803 5801 5799 5797 5795 5793 5791 5789 5787 5784 5781 5779 5777 5774 5772 5770 5768 5766
5828 5828 5828 5829 5830 5829 5828 5829 5828 5828 5826 5825 5824 5824 5820 5818 5817 5816 5814 5812 5811 5809 5807 5805 5802 5800 5798 5796 5794 5792 5790 5788 5786 5784 5782 5779 5776 5774 5771 5769 5766 5764 5762 5760
5825 5826 5827 5826 5825 5825 5826 5826 5825 5825 5824 5822 5821 5819 5817 5815 5813 5811 5810 5808 5806 5804 5802 5799 5797 5795 5793 5791 5789 5787 5785 5783 5781 5779 5777 5774 5772 5769 5767 5764 5762 5760 5757 5755
5824 5824 5823 5823 5823 5823 5823 5823 5822 5821 5820 5819 5818 5816 5814 5812 5809 5807 5806 5804 5802 5800 5797 5794 5792 5790 5788 5786 5784 5782 5780 5778 5776 5774 5772 5769 5767 5765 5762 5760 5758 5756 5753 5751
5821 5822 5821 5821 5821 5821 5821 5820 5819 5819 5817 5816 5814 5812 5810 5807 5805 5803 5801 5799 5797 5795 5793 5790 5788 5785 5783 5781 5779 5777 5775 5773 5771 5769 5767 5765 5763 5761 5758 5756 5754 5752 5749 5747
5819 5819 5819 5820 5819 5819 5818 5818 5816 5815 5814 5813 5811 5810 5807 5804 5802 5800 5797 5795 5793 5790 5788 5786 5783 5781 5779 5777 5775 5773 5771 5769 5767 5766 5763 5761 5759 5757 5755 5753 5751 5749 5746 5744
5817 5817 5817 5817 5818 5816 5817 5815 5814 5812 5811 5809 5807 5805 5803 5801 5799 5796 5794 5791 5789 5786 5784 5781 5779 5777 5775 5773 5771 5770 5768 5766 5764 5762 5760 5759 5757 5755 5752 5750 5748 5746 5744 5742
5815 5815 5815 5815 5815 5814 5814 5813 5811 5809 5807 5806 5804 5801 5799 5797 5794 5792 5790 5787 5785 5782 5780 5777 5775 5773 5771 5770 5768 5766 5765 5763 5761 5760 5758 5756 5755 5753 5751 5749 5747 5745 5742 5740
5813 5814 5814 5813 5813 5811 5812 5810 5808 5807 5804 5802 5800 5797 5795 5793 5791 5789 5785 5783 5780 5778 5776 5774 5772 5770 5768 5767 5765 5764 5762 5761 5760 5758 5757 5755 5753 5751 5750 5748 5746 5744 5742 5740
5812 5812 5812 5811 5810 5809 5809 5807 5806 5806 5803 5799 5797 5794 5792 5789 5787 5784 5781 5779 5776 5774 5772 5770 5769 5767 5766 5764 5763 5761 5760 5759 5758 5757 5755 5754 5752 5751 5749 5747 5745 5744 5742 5740
5810 5810 5810 5809 5809 5810 5806 5805 5805 5803 5799 5797 5794 5792 5789 5786 5784 5781 5778 5775 5773 5771 5769 5767 5766 5765 5764 5762 5761 5760 5759 5758 5757 5756 5755 5754 5752 5751 5749 5747 5746 5744 5742 5741
5808 5809 5808 5808 5808 5806 5805 5803 5802 5800 5797 5795 5793 5790 5788 5785 5782 5779 5776 5773 5771 5769 5767 5766 5764 5763 5762 5761 5760 5759 5758 5757 5757 5756 5755 5753 5752 5751 5749 5748 5746 5745 5743 5742
5807 5806 5806 5805 5805 5804 5803 5802 5800 5798 5796 5794 5791 5789 5786 5784 5781 5778 5775 5772 5770 5768 5767 5765 5764 5763 5762 5760 5759 5759 5758 5757 5756 5756 5755 5754 5753 5751 5750 5749 5747 5746 5745 5743
5805 5805 5805 5804 5803 5802 5801 5800 5799 5797 5795 5793 5791 5788 5786 5783 5780 5777 5774 5772 5770 5768 5767 5765 5764 5763 5762 5761 5760 5759 5758 5758 5757 5756 5756 5755 5753 5752 5751 5750 5748 5747 5746 5745
5804 5803 5803 5802 5801 5801 5800 5799 5798 5796 5794 5792 5790 5788 5785 5782 5780 5777 5775 5772 5770 5769 5767 5766 5765 5764 5763 5762 5761 5760 5759 5759 5758 5758 5757 5756 5755 5754 5753 5751 5750 5749 5748 5746